Stündliche Wetter Cayacoa de Boca Chica

Heute, 22 Oktober, Donnerstag

Zeit Temperatur Niederschläge Wind Luftdruck Luftfeuchtigkeit
00:00 +26°C° 0.4 mm 1 m/S 756 mmHg 87%
01:00 +26°C° 0.4 mm 1 m/S 755 mmHg 88%
02:00 +26°C° 0.2 mm 1 m/S 755 mmHg 89%
03:00 +26°C° 0.2 mm 1 m/S 755 mmHg 89%
04:00 +25°C° 0.2 mm 1 m/S 755 mmHg 89%
05:00 +26°C° 0.6 mm 1 m/S 755 mmHg 88%
06:00 +26°C° 0.6 mm 1 m/S 756 mmHg 87%
07:00 +27°C° 0.6 mm 1 m/S 756 mmHg 86%
08:00 +28°C° 0.9 mm 2 m/S 757 mmHg 82%
09:00 +30°C° 0.9 mm 2 m/S 757 mmHg 77%
10:00 +31°C° 0.9 mm 3 m/S 757 mmHg 73%
11:00 +31°C° 1.3 mm 3 m/S 756 mmHg 74%
12:00 +31°C° 1.3 mm 3 m/S 756 mmHg 76%
13:00 +31°C° 1.3 mm 3 m/S 756 mmHg 77%
14:00 +30°C° 0.4 mm 3 m/S 755 mmHg 78%
15:00 +30°C° 0.4 mm 3 m/S 755 mmHg 79%
16:00 +30°C° 0.4 mm 3 m/S 755 mmHg 81%
17:00 +29°C° 0 mm 3 m/S 756 mmHg 82%
18:00 +28°C° 0 mm 2 m/S 756 mmHg 83%
19:00 +28°C° 0 mm 2 m/S 756 mmHg 84%
20:00 +28°C° 0 mm 2 m/S 757 mmHg 84%
21:00 +27°C° 0 mm 1 m/S 757 mmHg 85%
22:00 +27°C° 0 mm 1 m/S 757 mmHg 86%
23:00 +27°C° 0.1 mm 1 m/S 757 mmHg 86%

Morgen, 23 Oktober, Freitag

Zeit Temperatur Niederschläge Wind Luftdruck Luftfeuchtigkeit
00:00 +27°C° 0.1 mm 1 m/S 757 mmHg 87%
01:00 +27°C° 0.1 mm 1 m/S 757 mmHg 87%
02:00 +27°C° 0.2 mm 1 m/S 757 mmHg 88%
03:00 +27°C° 0.2 mm 1 m/S 756 mmHg 89%
04:00 +26°C° 0.2 mm 1 m/S 756 mmHg 90%
05:00 +27°C° 0.3 mm 1 m/S 757 mmHg 90%
06:00 +27°C° 0.3 mm 1 m/S 757 mmHg 90%
07:00 +28°C° 0.3 mm 1 m/S 758 mmHg 89%
08:00 +29°C° 0.1 mm 2 m/S 758 mmHg 85%
09:00 +30°C° 0.1 mm 3 m/S 758 mmHg 81%
10:00 +32°C° 0.1 mm 4 m/S 758 mmHg 76%
11:00 +31°C° 0 mm 3 m/S 757 mmHg 73%
12:00 +33°C° 0 mm 3 m/S 757 mmHg 70%
13:00 +33°C° 0 mm 3 m/S 756 mmHg 67%
14:00 +33°C° 0 mm 3 m/S 756 mmHg 70%
15:00 +31°C° 0 mm 3 m/S 756 mmHg 73%
16:00 +31°C° 0 mm 2 m/S 756 mmHg 76%
17:00 +30°C° 0 mm 2 m/S 756 mmHg 80%
18:00 +28°C° 0 mm 2 m/S 756 mmHg 84%
19:00 +27°C° 0 mm 1 m/S 757 mmHg 88%
20:00 +27°C° 0 mm 1 m/S 757 mmHg 89%
21:00 +27°C° 0 mm 2 m/S 757 mmHg 90%
22:00 +27°C° 0 mm 2 m/S 757 mmHg 91%
23:00 +26°C° 0 mm 2 m/S 757 mmHg 92%

übermorgen, 24 Oktober, Samstag

Zeit Temperatur Niederschläge Wind Luftdruck Luftfeuchtigkeit
00:00 +26°C° 0 mm 2 m/S 757 mmHg 92%
01:00 +26°C° 0 mm 2 m/S 756 mmHg 93%
02:00 +26°C° 0 mm 2 m/S 756 mmHg 93%
03:00 +26°C° 0 mm 2 m/S 756 mmHg 93%
04:00 +26°C° 0 mm 2 m/S 756 mmHg 93%
05:00 +26°C° 0 mm 2 m/S 757 mmHg 91%
06:00 +27°C° 0 mm 2 m/S 757 mmHg 89%
07:00 +27°C° 0 mm 2 m/S 757 mmHg 87%
08:00 +29°C° 0.3 mm 2 m/S 757 mmHg 84%
09:00 +30°C° 0.3 mm 2 m/S 758 mmHg 81%
10:00 +31°C° 0.3 mm 3 m/S 758 mmHg 78%
11:00 +31°C° 0.8 mm 3 m/S 757 mmHg 77%
12:00 +31°C° 0.8 mm 3 m/S 756 mmHg 77%
13:00 +31°C° 0.8 mm 3 m/S 756 mmHg 76%
14:00 +31°C° 0.8 mm 3 m/S 756 mmHg 79%
15:00 +30°C° 0.8 mm 3 m/S 756 mmHg 81%
16:00 +30°C° 0.8 mm 3 m/S 755 mmHg 83%
17:00 +29°C° 1.4 mm 3 m/S 756 mmHg 85%
18:00 +28°C° 1.4 mm 3 m/S 756 mmHg 88%
19:00 +27°C° 1.4 mm 2 m/S 757 mmHg 91%
20:00 +27°C° 0.4 mm 2 m/S 757 mmHg 91%
21:00 +27°C° 0.4 mm 2 m/S 757 mmHg 92%
22:00 +26°C° 0.4 mm 2 m/S 757 mmHg 92%
23:00 +26°C° 0.1 mm 2 m/S 757 mmHg 92%

, 25 Oktober, Sonntag

Zeit Temperatur Niederschläge Wind Luftdruck Luftfeuchtigkeit
00:00 +26°C° 0.1 mm 2 m/S 757 mmHg 93%
01:00 +26°C° 0.1 mm 2 m/S 757 mmHg 93%
02:00 +25°C° 0.1 mm 2 m/S 757 mmHg 93%
03:00 +25°C° 0.1 mm 2 m/S 757 mmHg 93%
04:00 +25°C° 0.1 mm 2 m/S 757 mmHg 94%
05:00 +26°C° 0 mm 2 m/S 757 mmHg 93%
06:00 +26°C° 0 mm 2 m/S 757 mmHg 91%
07:00 +27°C° 0 mm 2 m/S 758 mmHg 90%
08:00 +28°C° 0 mm 2 m/S 758 mmHg 83%
09:00 +30°C° 0 mm 3 m/S 758 mmHg 76%
10:00 +31°C° 0 mm 3 m/S 758 mmHg 69%
11:00 +33°C° 0 mm 3 m/S 758 mmHg 67%
12:00 +33°C° 0 mm 3 m/S 757 mmHg 65%
13:00 +34°C° 0 mm 3 m/S 756 mmHg 63%
14:00 +33°C° 0.2 mm 3 m/S 756 mmHg 67%
15:00 +31°C° 0.2 mm 3 m/S 756 mmHg 72%
16:00 +30°C° 0.2 mm 2 m/S 756 mmHg 77%
17:00 +29°C° 0 mm 3 m/S 756 mmHg 81%
18:00 +28°C° 0 mm 3 m/S 757 mmHg 84%
19:00 +27°C° 0 mm 3 m/S 757 mmHg 88%
20:00 +27°C° 0.2 mm 3 m/S 758 mmHg 89%
21:00 +26°C° 0.2 mm 3 m/S 758 mmHg 90%
22:00 +26°C° 0.2 mm 3 m/S 758 mmHg 91%
23:00 +26°C° 0.3 mm 3 m/S 758 mmHg 92%

25 Oktober, Sonntag

Zeit Temperatur Niederschläge Wind Luftdruck Luftfeuchtigkeit
00:00 +26°C° 0.1 mm 2 m/S 757 mmHg 93%
01:00 +26°C° 0.1 mm 2 m/S 757 mmHg 93%
02:00 +25°C° 0.1 mm 2 m/S 757 mmHg 93%
03:00 +25°C° 0.1 mm 2 m/S 757 mmHg 93%
04:00 +25°C° 0.1 mm 2 m/S 757 mmHg 94%
05:00 +26°C° 0 mm 2 m/S 757 mmHg 93%
06:00 +26°C° 0 mm 2 m/S 757 mmHg 91%
07:00 +27°C° 0 mm 2 m/S 758 mmHg 90%
08:00 +28°C° 0 mm 2 m/S 758 mmHg 83%
09:00 +30°C° 0 mm 3 m/S 758 mmHg 76%
10:00 +31°C° 0 mm 3 m/S 758 mmHg 69%
11:00 +33°C° 0 mm 3 m/S 758 mmHg 67%
12:00 +33°C° 0 mm 3 m/S 757 mmHg 65%
13:00 +34°C° 0 mm 3 m/S 756 mmHg 63%
14:00 +33°C° 0.2 mm 3 m/S 756 mmHg 67%
15:00 +31°C° 0.2 mm 3 m/S 756 mmHg 72%
16:00 +30°C° 0.2 mm 2 m/S 756 mmHg 77%
17:00 +29°C° 0 mm 3 m/S 756 mmHg 81%
18:00 +28°C° 0 mm 3 m/S 757 mmHg 84%
19:00 +27°C° 0 mm 3 m/S 757 mmHg 88%
20:00 +27°C° 0.2 mm 3 m/S 758 mmHg 89%
21:00 +26°C° 0.2 mm 3 m/S 758 mmHg 90%
22:00 +26°C° 0.2 mm 3 m/S 758 mmHg 91%
23:00 +26°C° 0.3 mm 3 m/S 758 mmHg 92%

26 Oktober, Montag

Zeit Temperatur Niederschläge Wind Luftdruck Luftfeuchtigkeit
00:00 +26°C° 0.3 mm 3 m/S 757 mmHg 92%
01:00 +26°C° 0.3 mm 3 m/S 757 mmHg 93%
02:00 +26°C° 0.2 mm 3 m/S 757 mmHg 93%
03:00 +25°C° 0.2 mm 3 m/S 757 mmHg 93%
04:00 +25°C° 0.2 mm 3 m/S 757 mmHg 94%
05:00 +26°C° 0 mm 3 m/S 757 mmHg 93%
06:00 +26°C° 0 mm 3 m/S 757 mmHg 92%
07:00 +27°C° 0 mm 3 m/S 758 mmHg 91%
08:00 +28°C° 0.1 mm 4 m/S 758 mmHg 84%
09:00 +29°C° 0.1 mm 4 m/S 758 mmHg 78%
10:00 +32°C° 0.1 mm 4 m/S 758 mmHg 72%
11:00 +32°C° 0 mm 4 m/S 758 mmHg 69%
12:00 +33°C° 0 mm 4 m/S 757 mmHg 65%
13:00 +34°C° 0 mm 3 m/S 756 mmHg 61%
14:00 +33°C° 0.4 mm 4 m/S 756 mmHg 67%
15:00 +30°C° 0.4 mm 4 m/S 756 mmHg 73%
16:00 +29°C° 0.4 mm 4 m/S 756 mmHg 79%
17:00 +28°C° 0.2 mm 4 m/S 756 mmHg 82%
18:00 +27°C° 0.2 mm 4 m/S 757 mmHg 85%
19:00 +26°C° 0.2 mm 3 m/S 757 mmHg 89%
20:00 +26°C° 0 mm 3 m/S 757 mmHg 90%
21:00 +26°C° 0 mm 3 m/S 757 mmHg 91%
22:00 +25°C° 0 mm 3 m/S 757 mmHg 92%
23:00 +25°C° 0.1 mm 3 m/S 757 mmHg 92%

27 Oktober, Dienstag

Zeit Temperatur Niederschläge Wind Luftdruck Luftfeuchtigkeit
00:00 +25°C° 0.1 mm 3 m/S 757 mmHg 93%
01:00 +25°C° 0.1 mm 3 m/S 757 mmHg 93%
02:00 +25°C° 0.2 mm 3 m/S 757 mmHg 93%
03:00 +25°C° 0.2 mm 3 m/S 756 mmHg 93%
04:00 +25°C° 0.2 mm 3 m/S 756 mmHg 93%
05:00 +25°C° 0 mm 3 m/S 757 mmHg 92%
06:00 +26°C° 0 mm 3 m/S 757 mmHg 92%
07:00 +26°C° 0 mm 3 m/S 757 mmHg 91%
08:00 +27°C° 0.1 mm 3 m/S 757 mmHg 85%
09:00 +29°C° 0.1 mm 4 m/S 757 mmHg 78%
10:00 +30°C° 0.1 mm 4 m/S 758 mmHg 72%
11:00 +32°C° 0.3 mm 4 m/S 757 mmHg 71%
12:00 +32°C° 0.3 mm 4 m/S 756 mmHg 70%
13:00 +32°C° 0.3 mm 4 m/S 755 mmHg 69%
14:00 +31°C° 0.5 mm 3 m/S 755 mmHg 73%
15:00 +30°C° 0.5 mm 3 m/S 755 mmHg 77%
16:00 +29°C° 0.5 mm 3 m/S 755 mmHg 80%
17:00 +28°C° 0.9 mm 3 m/S 755 mmHg 83%
18:00 +27°C° 0.9 mm 3 m/S 756 mmHg 86%
19:00 +26°C° 0.9 mm 3 m/S 756 mmHg 89%
20:00 +26°C° 0.9 mm 3 m/S 756 mmHg 89%
21:00 +26°C° 0.9 mm 3 m/S 756 mmHg 90%
22:00 +25°C° 0.9 mm 3 m/S 756 mmHg 91%
23:00 +25°C° 1.5 mm 3 m/S 756 mmHg 92%
Mehr zeigen